Time,TemperatureF,DewpointF,PressureIn,WindDirection,WindDirectionDegrees,WindSpeedMPH,WindSpeedGustMPH,Humidity,HourlyPrecipIn,Conditions,Clouds,dailyrainin,SoftwareType,DateUTC
2013-08-26 00:02:00,76.6,71.8,30.15,North,0,4.0,6.0,85,0.00,,,0.00,meteohub,2013-08-26 05:02:00,
2013-08-26 00:07:00,76.6,71.8,30.15,North,0,4.0,6.0,85,0.00,,,0.00,meteohub,2013-08-26 05:07:00,
2013-08-26 00:12:00,76.6,71.8,30.15,NE,45,8.0,8.0,85,0.00,,,0.00,meteohub,2013-08-26 05:12:00,
2013-08-26 00:17:00,76.5,71.6,30.15,NE,45,4.0,8.0,85,0.00,,,0.00,meteohub,2013-08-26 05:17:00,
2013-08-26 00:22:00,76.5,72.0,30.15,NNW,338,4.0,8.0,86,0.00,,,0.00,meteohub,2013-08-26 05:22:00,
2013-08-26 00:27:00,76.5,72.0,30.15,NE,45,6.0,8.0,86,0.00,,,0.00,meteohub,2013-08-26 05:27:00,
2013-08-26 00:32:00,76.5,72.0,30.15,NE,45,6.0,6.0,86,0.00,,,0.00,meteohub,2013-08-26 05:32:00,
2013-08-26 00:37:00,76.5,72.0,30.14,North,0,6.0,9.0,86,0.00,,,0.00,meteohub,2013-08-26 05:37:00,
2013-08-26 00:42:00,76.3,71.8,30.14,NE,45,4.0,9.0,86,0.00,,,0.00,meteohub,2013-08-26 05:42:00,
2013-08-26 00:47:00,76.3,71.8,30.14,NE,45,5.0,9.0,86,0.00,,,0.00,meteohub,2013-08-26 05:47:00,
2013-08-26 00:52:00,76.3,71.8,30.14,SE,135,3.0,7.0,86,0.00,,,0.00,meteohub,2013-08-26 05:52:00,
2013-08-26 00:57:00,76.1,72.0,30.14,East,90,5.0,6.0,87,0.00,,,0.00,meteohub,2013-08-26 05:57:00,
2013-08-26 01:02:00,76.3,72.1,30.14,ENE,68,4.0,7.0,87,0.00,,,0.00,meteohub,2013-08-26 06:02:00,
2013-08-26 01:07:00,76.3,72.1,30.13,ENE,68,4.0,7.0,87,0.00,,,0.00,meteohub,2013-08-26 06:07:00,
2013-08-26 01:17:00,75.9,71.8,30.14,East,90,2.0,4.0,87,0.00,,,0.00,meteohub,2013-08-26 06:17:00,
2013-08-26 01:22:00,76.1,72.3,30.14,NE,45,4.0,4.0,88,0.00,,,0.00,meteohub,2013-08-26 06:22:00,
2013-08-26 01:27:00,75.9,72.1,30.13,NE,45,1.0,4.0,88,0.00,,,0.00,meteohub,2013-08-26 06:27:00,
2013-08-26 01:32:00,75.7,72.0,30.14,North,0,4.0,5.0,88,0.00,,,0.00,meteohub,2013-08-26 06:32:00,
2013-08-26 01:37:00,75.9,72.1,30.13,NE,45,4.0,5.0,88,0.00,,,0.00,meteohub,2013-08-26 06:37:00,
2013-08-26 01:42:00,75.7,72.0,30.14,East,90,4.0,5.0,88,0.00,,,0.00,meteohub,2013-08-26 06:42:00,
2013-08-26 01:47:00,75.7,72.0,30.12,North,0,4.0,5.0,88,0.00,,,0.00,meteohub,2013-08-26 06:47:00,
2013-08-26 01:52:00,75.7,72.0,30.13,North,0,4.0,5.0,88,0.00,,,0.00,meteohub,2013-08-26 06:52:00,
2013-08-26 02:02:00,75.6,72.1,30.12,East,90,2.0,4.0,89,0.00,,,0.00,meteohub,2013-08-26 07:02:00,
2013-08-26 02:07:00,75.6,72.1,30.12,East,90,2.0,4.0,89,0.00,,,0.00,meteohub,2013-08-26 07:07:00,
2013-08-26 02:12:00,75.4,72.0,30.12,NE,45,4.0,4.0,89,0.00,,,0.00,meteohub,2013-08-26 07:12:00,
2013-08-26 02:17:00,75.4,72.0,30.13,East,90,4.0,4.0,89,0.00,,,0.00,meteohub,2013-08-26 07:17:00,
2013-08-26 02:22:00,75.4,72.0,30.13,NE,45,2.0,4.0,89,0.00,,,0.00,meteohub,2013-08-26 07:22:00,
2013-08-26 02:27:00,75.4,72.0,30.12,North,0,2.0,4.0,89,0.00,,,0.00,meteohub,2013-08-26 07:27:00,
2013-08-26 02:32:00,75.4,72.0,30.12,NE,45,2.0,4.0,89,0.00,,,0.00,meteohub,2013-08-26 07:32:00,
2013-08-26 02:37:00,75.4,72.3,30.12,East,90,2.0,6.0,90,0.00,,,0.00,meteohub,2013-08-26 07:37:00,
2013-08-26 02:42:00,75.4,72.3,30.12,NE,45,3.0,8.0,90,0.00,,,0.00,meteohub,2013-08-26 07:42:00,
2013-08-26 02:47:00,75.4,72.3,30.13,NE,45,2.0,8.0,90,0.00,,,0.00,meteohub,2013-08-26 07:47:00,
2013-08-26 02:52:00,75.4,72.3,30.13,NE,45,6.0,8.0,90,0.00,,,0.00,meteohub,2013-08-26 07:52:00,
2013-08-26 02:57:00,75.6,72.5,30.13,SE,135,3.0,6.0,90,0.00,,,0.00,meteohub,2013-08-26 07:57:00,
2013-08-26 03:02:00,75.6,72.5,30.12,North,0,4.0,6.0,90,0.00,,,0.00,meteohub,2013-08-26 08:02:00,
2013-08-26 03:07:00,75.6,72.5,30.12,North,0,4.0,6.0,90,0.00,,,0.00,meteohub,2013-08-26 08:07:00,
2013-08-26 03:12:00,75.7,72.9,30.13,NE,45,4.0,4.0,91,0.00,,,0.00,meteohub,2013-08-26 08:12:00,
2013-08-26 03:17:00,75.7,72.9,30.12,North,0,3.0,4.0,91,0.00,,,0.00,meteohub,2013-08-26 08:17:00,
2013-08-26 03:22:00,75.7,72.9,30.12,NE,45,3.0,4.0,91,0.00,,,0.00,meteohub,2013-08-26 08:22:00,
2013-08-26 03:27:00,75.7,72.9,30.13,NE,45,4.0,4.0,91,0.00,,,0.00,meteohub,2013-08-26 08:27:00,
2013-08-26 03:32:00,75.7,72.9,30.13,North,0,3.0,7.0,91,0.00,,,0.00,meteohub,2013-08-26 08:32:00,
2013-08-26 03:37:00,75.7,72.9,30.13,East,90,3.0,7.0,91,0.00,,,0.00,meteohub,2013-08-26 08:37:00,
2013-08-26 03:42:00,75.9,73.0,30.13,NE,45,3.0,5.0,91,0.00,,,0.00,meteohub,2013-08-26 08:42:00,
2013-08-26 03:47:00,75.7,72.9,30.13,ENE,68,4.0,5.0,91,0.00,,,0.00,meteohub,2013-08-26 08:47:00,
2013-08-26 03:52:00,75.9,73.0,30.13,East,90,6.0,6.0,91,0.00,,,0.00,meteohub,2013-08-26 08:52:00,
2013-08-26 03:57:00,75.7,72.9,30.13,NE,45,2.0,6.0,91,0.00,,,0.00,meteohub,2013-08-26 08:57:00,
2013-08-26 04:02:00,75.7,72.9,30.13,East,90,8.0,8.0,91,0.00,,,0.00,meteohub,2013-08-26 09:02:00,
2013-08-26 04:07:00,75.7,72.9,30.13,East,90,4.0,8.0,91,0.00,,,0.00,meteohub,2013-08-26 09:07:00,
2013-08-26 04:12:00,75.7,72.9,30.13,North,0,3.0,8.0,91,0.00,,,0.00,meteohub,2013-08-26 09:12:00,
2013-08-26 04:17:00,75.7,72.9,30.13,NE,45,4.0,8.0,91,0.00,,,0.00,meteohub,2013-08-26 09:17:00,
2013-08-26 04:22:00,75.7,72.9,30.13,NE,45,4.0,7.0,91,0.00,,,0.00,meteohub,2013-08-26 09:22:00,
2013-08-26 04:27:00,75.6,73.0,30.14,North,0,4.0,4.0,92,0.00,,,0.00,meteohub,2013-08-26 09:27:00,
2013-08-26 04:32:00,75.7,73.2,30.14,East,90,1.0,4.0,92,0.00,,,0.00,meteohub,2013-08-26 09:32:00,
2013-08-26 04:37:00,75.6,73.0,30.14,NE,45,4.0,4.0,92,0.00,,,0.00,meteohub,2013-08-26 09:37:00,
2013-08-26 04:47:00,75.6,73.0,30.13,NW,315,3.0,4.0,92,0.00,,,0.00,meteohub,2013-08-26 09:47:00,
2013-08-26 04:52:00,75.6,73.0,30.13,NW,315,3.0,4.0,92,0.00,,,0.00,meteohub,2013-08-26 09:52:00,
2013-08-26 04:57:00,75.4,72.9,30.13,NNE,23,4.0,4.0,92,0.00,,,0.00,meteohub,2013-08-26 09:57:00,
2013-08-26 05:02:00,75.4,72.9,30.14,North,0,2.0,4.0,92,0.00,,,0.00,meteohub,2013-08-26 10:02:00,
2013-08-26 05:07:00,75.4,72.9,30.14,North,0,2.0,4.0,92,0.00,,,0.00,meteohub,2013-08-26 10:07:00,
2013-08-26 05:12:00,75.4,72.9,30.14,NNE,23,4.0,7.0,92,0.00,,,0.00,meteohub,2013-08-26 10:12:00,
2013-08-26 05:17:00,75.2,72.7,30.13,North,0,4.0,7.0,92,0.00,,,0.00,meteohub,2013-08-26 10:17:00,
2013-08-26 05:22:00,75.2,72.7,30.14,NW,315,2.0,7.0,92,0.00,,,0.00,meteohub,2013-08-26 10:22:00,
2013-08-26 05:27:00,75.2,72.7,30.13,North,0,4.0,6.0,92,0.00,,,0.00,meteohub,2013-08-26 10:27:00,
2013-08-26 05:32:00,75.0,72.5,30.13,NE,45,6.0,6.0,92,0.00,,,0.00,meteohub,2013-08-26 10:32:00,
2013-08-26 05:37:00,75.2,72.7,30.14,North,0,6.0,8.0,92,0.00,,,0.00,meteohub,2013-08-26 10:37:00,
2013-08-26 05:42:00,75.2,72.7,30.13,North,0,3.0,8.0,92,0.00,,,0.00,meteohub,2013-08-26 10:42:00,
2013-08-26 05:47:00,75.2,72.7,30.14,North,0,2.0,8.0,92,0.00,,,0.00,meteohub,2013-08-26 10:47:00,
2013-08-26 05:52:00,75.0,72.5,30.14,NE,45,4.0,8.0,92,0.00,,,0.00,meteohub,2013-08-26 10:52:00,
2013-08-26 05:57:00,75.2,73.0,30.14,North,0,5.0,8.0,93,0.00,,,0.00,meteohub,2013-08-26 10:57:00,
2013-08-26 06:02:00,75.2,73.0,30.13,NE,45,9.0,9.0,93,0.00,,,0.00,meteohub,2013-08-26 11:02:00,
2013-08-26 06:07:00,75.2,73.0,30.14,NE,45,9.0,9.0,93,0.00,,,0.00,meteohub,2013-08-26 11:07:00,
2013-08-26 06:12:00,75.2,73.0,30.14,NE,45,3.0,9.0,93,0.00,,,0.00,meteohub,2013-08-26 11:12:00,
2013-08-26 06:17:00,75.2,73.0,30.14,NE,45,2.0,9.0,93,0.00,,,0.00,meteohub,2013-08-26 11:17:00,
2013-08-26 06:22:00,75.0,72.9,30.14,North,0,4.0,9.0,93,0.00,,,0.00,meteohub,2013-08-26 11:22:00,
2013-08-26 06:27:00,75.2,73.0,30.14,North,0,4.0,4.0,93,0.00,,,0.00,meteohub,2013-08-26 11:27:00,
2013-08-26 06:32:00,75.0,72.9,30.14,North,0,2.0,4.0,93,0.00,,,0.00,meteohub,2013-08-26 11:32:00,
2013-08-26 06:37:00,75.0,72.9,30.14,North,0,5.0,5.0,93,0.00,,,0.00,meteohub,2013-08-26 11:37:00,
2013-08-26 06:42:00,75.0,72.9,30.14,NE,45,3.0,7.0,93,0.00,,,0.00,meteohub,2013-08-26 11:42:00,
2013-08-26 06:47:00,74.8,72.7,30.15,North,0,4.0,7.0,93,0.00,,,0.00,meteohub,2013-08-26 11:47:00,
2013-08-26 06:52:00,75.0,72.9,30.15,NW,315,2.0,7.0,93,0.00,,,0.00,meteohub,2013-08-26 11:52:00,
2013-08-26 07:02:00,75.0,72.9,30.15,NW,315,2.0,5.0,93,0.00,,,0.00,meteohub,2013-08-26 12:02:00,
2013-08-26 07:07:00,75.0,72.9,30.15,NW,315,2.0,5.0,93,0.00,,,0.00,meteohub,2013-08-26 12:07:00,
2013-08-26 07:12:00,75.2,73.0,30.15,NNE,23,4.0,6.0,93,0.00,,,0.00,meteohub,2013-08-26 12:12:00,
2013-08-26 07:17:00,75.0,72.9,30.15,NE,45,4.0,6.0,93,0.00,,,0.00,meteohub,2013-08-26 12:17:00,
2013-08-26 07:22:00,75.4,73.2,30.16,NE,45,5.0,6.0,93,0.00,,,0.00,meteohub,2013-08-26 12:22:00,
2013-08-26 07:27:00,75.2,73.0,30.16,NE,45,5.0,6.0,93,0.00,,,0.00,meteohub,2013-08-26 12:27:00,
2013-08-26 07:32:00,75.4,73.2,30.16,NE,45,4.0,7.0,93,0.00,,,0.00,meteohub,2013-08-26 12:32:00,
2013-08-26 07:37:00,75.4,73.2,30.16,North,0,6.0,7.0,93,0.00,,,0.00,meteohub,2013-08-26 12:37:00,
2013-08-26 07:42:00,75.6,73.4,30.16,East,90,5.0,8.0,93,0.00,,,0.00,meteohub,2013-08-26 12:42:00,
2013-08-26 07:47:00,75.6,73.4,30.16,NE,45,4.0,8.0,93,0.00,,,0.00,meteohub,2013-08-26 12:47:00,
2013-08-26 07:52:00,75.7,73.2,30.17,NE,45,4.0,8.0,92,0.00,,,0.00,meteohub,2013-08-26 12:52:00,
2013-08-26 07:57:00,75.7,73.2,30.17,North,0,4.0,9.0,92,0.00,,,0.00,meteohub,2013-08-26 12:57:00,
2013-08-26 08:02:00,75.7,73.2,30.17,North,0,4.0,9.0,92,0.00,,,0.00,meteohub,2013-08-26 13:02:00,
2013-08-26 08:07:00,75.7,73.2,30.17,North,0,4.0,9.0,92,0.00,,,0.00,meteohub,2013-08-26 13:07:00,
2013-08-26 08:12:00,75.7,73.2,30.17,NE,45,7.0,10.0,92,0.00,,,0.00,meteohub,2013-08-26 13:12:00,
2013-08-26 08:17:00,75.9,73.4,30.17,East,90,6.0,10.0,92,0.00,,,0.00,meteohub,2013-08-26 13:17:00,
2013-08-26 08:22:00,75.9,73.4,30.17,NE,45,4.0,10.0,92,0.00,,,0.00,meteohub,2013-08-26 13:22:00,
2013-08-26 08:27:00,75.7,73.2,30.18,NNE,23,4.0,9.0,92,0.00,,,0.00,meteohub,2013-08-26 13:27:00,
2013-08-26 08:32:00,75.9,73.4,30.18,North,0,5.0,7.0,92,0.00,,,0.00,meteohub,2013-08-26 13:32:00,
2013-08-26 08:37:00,75.7,73.2,30.17,SE,135,2.0,7.0,92,0.00,,,0.00,meteohub,2013-08-26 13:37:00,
2013-08-26 08:42:00,75.9,73.4,30.18,East,90,2.0,8.0,92,0.00,,,0.00,meteohub,2013-08-26 13:42:00,
2013-08-26 08:47:00,76.1,73.6,30.17,East,90,3.0,8.0,92,0.00,,,0.00,meteohub,2013-08-26 13:47:00,
2013-08-26 08:52:00,76.3,73.8,30.18,NE,45,6.0,8.0,92,0.00,,,0.00,meteohub,2013-08-26 13:52:00,
2013-08-26 08:57:00,76.5,73.9,30.18,North,0,5.0,6.0,92,0.00,,,0.00,meteohub,2013-08-26 13:57:00,
2013-08-26 09:02:00,76.5,73.9,30.17,East,90,3.0,8.0,92,0.00,,,0.00,meteohub,2013-08-26 14:02:00,
2013-08-26 09:07:00,76.5,73.9,30.18,East,90,3.0,8.0,92,0.00,,,0.00,meteohub,2013-08-26 14:07:00,
2013-08-26 09:12:00,77.2,74.3,30.17,East,90,4.0,8.0,91,0.00,,,0.00,meteohub,2013-08-26 14:12:00,
2013-08-26 09:17:00,77.2,74.3,30.18,East,90,5.0,5.0,91,0.00,,,0.00,meteohub,2013-08-26 14:17:00,
2013-08-26 09:22:00,77.4,74.5,30.18,East,90,4.0,8.0,91,0.00,,,0.00,meteohub,2013-08-26 14:22:00,
2013-08-26 09:27:00,77.5,74.7,30.17,North,0,5.0,8.0,91,0.00,,,0.00,meteohub,2013-08-26 14:27:00,
2013-08-26 09:32:00,77.7,74.5,30.17,NW,315,5.0,9.0,90,0.00,,,0.00,meteohub,2013-08-26 14:32:00,
2013-08-26 09:37:00,77.9,74.7,30.17,NE,45,4.0,9.0,90,0.00,,,0.00,meteohub,2013-08-26 14:37:00,
2013-08-26 09:42:00,78.1,74.5,30.18,NE,45,5.0,8.0,89,0.00,,,0.00,meteohub,2013-08-26 14:42:00,
2013-08-26 09:52:00,78.4,74.8,30.18,North,0,5.0,9.0,89,0.00,,,0.00,meteohub,2013-08-26 14:52:00,
2013-08-26 09:57:00,78.6,74.8,30.18,East,90,5.0,9.0,88,0.00,,,0.00,meteohub,2013-08-26 14:57:00,
2013-08-26 10:02:00,78.8,75.0,30.18,NW,315,4.0,9.0,88,0.00,,,0.00,meteohub,2013-08-26 15:02:00,
2013-08-26 10:07:00,78.8,75.0,30.19,NW,315,4.0,9.0,88,0.00,,,0.00,meteohub,2013-08-26 15:07:00,
2013-08-26 10:12:00,79.5,75.4,30.19,ENE,68,4.0,8.0,87,0.00,,,0.00,meteohub,2013-08-26 15:12:00,
2013-08-26 10:17:00,79.9,75.4,30.19,NE,45,8.0,8.0,86,0.00,,,0.00,meteohub,2013-08-26 15:17:00,
2013-08-26 10:22:00,79.9,75.0,30.19,East,90,8.0,8.0,85,0.00,,,0.00,meteohub,2013-08-26 15:22:00,
2013-08-26 10:27:00,79.7,74.8,30.19,East,90,9.0,10.0,85,0.00,,,0.00,meteohub,2013-08-26 15:27:00,
2013-08-26 10:32:00,79.9,75.0,30.19,ENE,68,4.0,10.0,85,0.00,,,0.00,meteohub,2013-08-26 15:32:00,
2013-08-26 10:37:00,80.2,75.4,30.19,ENE,68,2.0,10.0,85,0.00,,,0.00,meteohub,2013-08-26 15:37:00,
2013-08-26 10:42:00,80.6,75.4,30.19,East,90,3.0,9.0,84,0.00,,,0.00,meteohub,2013-08-26 15:42:00,
2013-08-26 10:47:00,81.0,75.4,30.19,East,90,5.0,8.0,83,0.00,,,0.00,meteohub,2013-08-26 15:47:00,
2013-08-26 10:52:00,81.1,75.2,30.19,East,90,8.0,8.0,82,0.00,,,0.00,meteohub,2013-08-26 15:52:00,
2013-08-26 10:57:00,81.3,75.4,30.19,NE,45,6.0,8.0,82,0.00,,,0.00,meteohub,2013-08-26 15:57:00,
2013-08-26 11:02:00,81.7,75.6,30.19,North,0,5.0,8.0,82,0.00,,,0.00,meteohub,2013-08-26 16:02:00,
2013-08-26 11:07:00,81.7,75.6,30.19,North,0,5.0,8.0,82,0.00,,,0.00,meteohub,2013-08-26 16:07:00,
2013-08-26 11:12:00,82.8,75.6,30.19,East,90,4.0,8.0,79,0.00,,,0.00,meteohub,2013-08-26 16:12:00,
2013-08-26 11:17:00,83.1,75.2,30.19,SE,135,8.0,9.0,77,0.00,,,0.00,meteohub,2013-08-26 16:17:00,
2013-08-26 11:22:00,83.3,74.1,30.19,East,90,13.0,13.0,74,0.00,,,0.00,meteohub,2013-08-26 16:22:00,
2013-08-26 11:27:00,83.8,74.7,30.18,NE,45,6.0,13.0,74,0.00,,,0.00,meteohub,2013-08-26 16:27:00,
2013-08-26 11:32:00,84.6,75.7,30.18,East,90,4.0,13.0,75,0.00,,,0.00,meteohub,2013-08-26 16:32:00,
2013-08-26 11:37:00,85.1,75.9,30.18,East,90,3.0,13.0,74,0.00,,,0.00,meteohub,2013-08-26 16:37:00,
2013-08-26 11:42:00,84.7,74.7,30.18,NE,45,8.0,10.0,72,0.00,,,0.00,meteohub,2013-08-26 16:42:00,
2013-08-26 11:47:00,84.6,74.1,30.18,South,180,8.0,8.0,71,0.00,,,0.00,meteohub,2013-08-26 16:47:00,
2013-08-26 11:52:00,84.7,74.7,30.18,East,90,4.0,8.0,72,0.00,,,0.00,meteohub,2013-08-26 16:52:00,
2013-08-26 11:57:00,85.1,74.7,30.18,SE,135,3.0,8.0,71,0.00,,,0.00,meteohub,2013-08-26 16:57:00,
2013-08-26 12:02:00,85.1,73.8,30.18,East,90,8.0,10.0,69,0.00,,,0.00,meteohub,2013-08-26 17:02:00,
2013-08-26 12:07:00,85.1,73.8,30.18,East,90,8.0,10.0,69,0.00,,,0.00,meteohub,2013-08-26 17:07:00,
2013-08-26 12:12:00,85.6,75.2,30.18,NE,45,4.0,10.0,71,0.00,,,0.00,meteohub,2013-08-26 17:12:00,
2013-08-26 12:17:00,85.5,74.1,30.18,North,0,7.0,9.0,69,0.00,,,0.00,meteohub,2013-08-26 17:17:00,
2013-08-26 12:22:00,85.3,73.9,30.17,NE,45,6.0,9.0,69,0.00,,,0.00,meteohub,2013-08-26 17:22:00,
2013-08-26 12:27:00,85.1,73.8,30.18,East,90,7.0,9.0,69,0.00,,,0.00,meteohub,2013-08-26 17:27:00,
2013-08-26 12:32:00,85.1,73.8,30.17,West,270,4.0,8.0,69,0.00,,,0.00,meteohub,2013-08-26 17:32:00,
2013-08-26 12:37:00,85.1,73.8,30.17,SE,135,2.0,8.0,69,0.00,,,0.00,meteohub,2013-08-26 17:37:00,
2013-08-26 12:47:00,86.4,74.5,30.16,South,180,3.0,9.0,68,0.00,,,0.00,meteohub,2013-08-26 17:47:00,
2013-08-26 12:52:00,87.4,74.7,30.16,North,0,5.0,7.0,66,0.00,,,0.00,meteohub,2013-08-26 17:52:00,
2013-08-26 12:57:00,87.6,73.4,30.15,NE,45,5.0,8.0,63,0.00,,,0.00,meteohub,2013-08-26 17:57:00,
2013-08-26 13:02:00,87.8,73.6,30.15,South,180,2.0,9.0,63,0.00,,,0.00,meteohub,2013-08-26 18:02:00,
2013-08-26 13:07:00,87.8,73.6,30.15,South,180,2.0,9.0,63,0.00,,,0.00,meteohub,2013-08-26 18:07:00,
2013-08-26 13:12:00,88.0,72.9,30.15,NE,45,7.0,9.0,61,0.00,,,0.00,meteohub,2013-08-26 18:12:00,
2013-08-26 13:17:00,88.2,73.0,30.15,East,90,8.0,8.0,61,0.00,,,0.00,meteohub,2013-08-26 18:17:00,
2013-08-26 13:22:00,87.8,72.7,30.16,ENE,68,9.0,9.0,61,0.00,,,0.00,meteohub,2013-08-26 18:22:00,
2013-08-26 13:27:00,87.4,72.9,30.15,North,0,4.0,9.0,62,0.00,,,0.00,meteohub,2013-08-26 18:27:00,
2013-08-26 13:32:00,87.1,72.0,30.16,East,90,4.0,9.0,61,0.00,,,0.00,meteohub,2013-08-26 18:32:00,
2013-08-26 13:37:00,86.7,72.1,30.15,North,0,2.0,9.0,62,0.00,,,0.00,meteohub,2013-08-26 18:37:00,
2013-08-26 13:42:00,86.5,72.5,30.15,SE,135,4.0,9.0,63,0.00,,,0.00,meteohub,2013-08-26 18:42:00,
2013-08-26 13:47:00,86.2,72.5,30.15,SE,135,5.0,8.0,64,0.00,,,0.00,meteohub,2013-08-26 18:47:00,
2013-08-26 13:52:00,84.7,72.5,30.15,SE,135,4.0,6.0,67,0.01,,,0.01,meteohub,2013-08-26 18:52:00,
2013-08-26 13:57:00,83.1,72.0,30.15,South,180,4.0,7.0,69,0.04,,,0.04,meteohub,2013-08-26 18:57:00,
2013-08-26 14:02:00,81.9,71.6,30.15,South,180,2.0,7.0,71,0.06,,,0.06,meteohub,2013-08-26 19:02:00,
2013-08-26 14:07:00,81.9,71.6,30.15,South,180,2.0,7.0,71,0.07,,,0.07,meteohub,2013-08-26 19:07:00,
2013-08-26 14:12:00,80.8,71.8,30.15,SW,225,2.0,4.0,74,0.08,,,0.08,meteohub,2013-08-26 19:12:00,
2013-08-26 14:17:00,80.2,72.3,30.15,South,180,6.0,6.0,77,0.08,,,0.08,meteohub,2013-08-26 19:17:00,
2013-08-26 14:22:00,79.7,72.1,30.15,SSE,158,4.0,6.0,78,0.13,,,0.13,meteohub,2013-08-26 19:22:00,
2013-08-26 14:27:00,79.5,72.9,30.15,SSE,158,4.0,6.0,80,0.15,,,0.15,meteohub,2013-08-26 19:27:00,
2013-08-26 14:32:00,79.2,72.9,30.15,SE,135,3.0,6.0,81,0.25,,,0.25,meteohub,2013-08-26 19:32:00,
2013-08-26 14:37:00,79.0,73.0,30.16,ESE,113,5.0,8.0,82,0.30,,,0.30,meteohub,2013-08-26 19:37:00,
2013-08-26 14:42:00,78.3,72.3,30.16,East,90,2.0,8.0,82,0.38,,,0.38,meteohub,2013-08-26 19:42:00,
2013-08-26 14:47:00,77.7,72.1,30.16,East,90,8.0,8.0,83,0.44,,,0.45,meteohub,2013-08-26 19:47:00,
2013-08-26 14:52:00,77.5,72.0,30.15,East,90,5.0,8.0,83,0.59,,,0.60,meteohub,2013-08-26 19:52:00,
2013-08-26 14:57:00,77.5,72.3,30.15,SE,135,2.0,8.0,84,0.56,,,0.60,meteohub,2013-08-26 19:57:00,
2013-08-26 15:02:00,77.4,72.1,30.15,North,0,7.0,9.0,84,0.53,,,0.60,meteohub,2013-08-26 20:02:00,
2013-08-26 15:07:00,77.4,72.1,30.15,North,0,7.0,9.0,84,0.53,,,0.60,meteohub,2013-08-26 20:07:00,
2013-08-26 15:17:00,77.2,72.3,30.14,SW,225,4.0,8.0,85,0.54,,,0.65,meteohub,2013-08-26 20:17:00,
2013-08-26 15:22:00,77.0,72.1,30.15,North,0,5.0,8.0,85,0.52,,,0.65,meteohub,2013-08-26 20:22:00,
2013-08-26 15:27:00,77.0,72.1,30.14,NE,45,4.0,7.0,85,0.43,,,0.65,meteohub,2013-08-26 20:27:00,
2013-08-26 15:32:00,77.2,72.3,30.14,North,0,4.0,7.0,85,0.40,,,0.65,meteohub,2013-08-26 20:32:00,
2013-08-26 15:37:00,77.4,72.9,30.13,NW,315,3.0,5.0,86,0.33,,,0.65,meteohub,2013-08-26 20:37:00,
2013-08-26 15:42:00,77.4,72.9,30.14,North,0,2.0,4.0,86,0.24,,,0.65,meteohub,2013-08-26 20:42:00,
2013-08-26 15:47:00,77.5,73.0,30.14,SW,225,1.0,4.0,86,0.14,,,0.65,meteohub,2013-08-26 20:47:00,
2013-08-26 15:52:00,77.7,73.2,30.14,SE,135,0.0,3.0,86,0.05,,,0.65,meteohub,2013-08-26 20:52:00,
2013-08-26 15:57:00,77.9,73.4,30.13,South,180,2.0,2.0,86,0.05,,,0.65,meteohub,2013-08-26 20:57:00,
2013-08-26 16:02:00,78.1,73.6,30.13,South,180,0.0,2.0,86,0.05,,,0.65,meteohub,2013-08-26 21:02:00,
2013-08-26 16:07:00,78.1,73.6,30.13,South,180,0.0,2.0,86,0.05,,,0.65,meteohub,2013-08-26 21:07:00,
2013-08-26 16:12:00,78.8,74.3,30.13,South,180,2.0,2.0,86,0.02,,,0.65,meteohub,2013-08-26 21:12:00,
2013-08-26 16:17:00,79.0,74.1,30.13,East,90,1.0,2.0,85,0.00,,,0.65,meteohub,2013-08-26 21:17:00,
2013-08-26 16:22:00,79.3,74.5,30.13,SE,135,2.0,2.0,85,0.00,,,0.65,meteohub,2013-08-26 21:22:00,
2013-08-26 16:27:00,79.5,74.7,30.13,SE,135,2.0,3.0,85,0.00,,,0.65,meteohub,2013-08-26 21:27:00,
2013-08-26 16:32:00,79.5,74.3,30.13,SE,135,2.0,3.0,84,0.00,,,0.65,meteohub,2013-08-26 21:32:00,
2013-08-26 16:37:00,79.9,74.7,30.13,SE,135,1.0,3.0,84,0.00,,,0.65,meteohub,2013-08-26 21:37:00,
2013-08-26 16:42:00,80.1,74.8,30.13,East,90,2.0,2.0,84,0.00,,,0.65,meteohub,2013-08-26 21:42:00,
2013-08-26 16:47:00,80.1,74.8,30.13,SE,135,2.0,2.0,84,0.00,,,0.65,meteohub,2013-08-26 21:47:00,
2013-08-26 16:52:00,80.4,75.2,30.13,SE,135,0.0,2.0,84,0.00,,,0.65,meteohub,2013-08-26 21:52:00,
2013-08-26 16:57:00,80.6,75.0,30.13,SE,135,1.0,2.0,83,0.00,,,0.65,meteohub,2013-08-26 21:57:00,
2013-08-26 17:02:00,80.6,75.0,30.13,SE,135,1.0,2.0,83,0.00,,,0.65,meteohub,2013-08-26 22:02:00,
2013-08-26 17:07:00,80.6,75.0,30.13,SE,135,1.0,2.0,83,0.00,,,0.65,meteohub,2013-08-26 22:07:00,
2013-08-26 17:12:00,81.1,75.6,30.12,SE,135,2.0,2.0,83,0.00,,,0.65,meteohub,2013-08-26 22:12:00,
2013-08-26 17:17:00,81.1,75.6,30.12,SE,135,2.0,2.0,83,0.00,,,0.65,meteohub,2013-08-26 22:17:00,
2013-08-26 17:22:00,81.1,75.6,30.12,SE,135,1.0,2.0,83,0.00,,,0.65,meteohub,2013-08-26 22:22:00,
2013-08-26 17:27:00,81.3,75.7,30.12,SE,135,0.0,2.0,83,0.00,,,0.65,meteohub,2013-08-26 22:27:00,
2013-08-26 17:32:00,81.3,76.1,30.13,SE,135,1.0,2.0,84,0.00,,,0.65,meteohub,2013-08-26 22:32:00,
2013-08-26 17:37:00,81.3,76.1,30.12,South,180,0.0,2.0,84,0.00,,,0.65,meteohub,2013-08-26 22:37:00,
2013-08-26 17:42:00,81.3,76.1,30.12,South,180,0.0,1.0,84,0.00,,,0.65,meteohub,2013-08-26 22:42:00,
2013-08-26 17:52:00,81.3,76.1,30.12,South,180,0.0,1.0,84,0.00,,,0.65,meteohub,2013-08-26 22:52:00,
2013-08-26 17:57:00,81.1,75.9,30.12,South,180,0.0,0.0,84,0.00,,,0.65,meteohub,2013-08-26 22:57:00,
2013-08-26 18:02:00,81.1,76.3,30.12,South,180,0.0,0.0,85,0.00,,,0.65,meteohub,2013-08-26 23:02:00,
2013-08-26 18:07:00,81.1,76.3,30.12,South,180,0.0,0.0,85,0.00,,,0.65,meteohub,2013-08-26 23:07:00,
2013-08-26 18:12:00,80.8,75.6,30.12,South,180,0.0,2.0,84,0.00,,,0.65,meteohub,2013-08-26 23:12:00,
2013-08-26 18:17:00,80.6,75.4,30.12,South,180,0.0,2.0,84,0.00,,,0.65,meteohub,2013-08-26 23:17:00,
2013-08-26 18:22:00,80.6,75.4,30.12,South,180,0.0,2.0,84,0.00,,,0.65,meteohub,2013-08-26 23:22:00,
2013-08-26 18:27:00,80.6,75.7,30.11,South,180,0.0,1.0,85,0.00,,,0.65,meteohub,2013-08-26 23:27:00,
2013-08-26 18:32:00,80.6,75.7,30.11,WNW,293,0.0,0.0,85,0.00,,,0.65,meteohub,2013-08-26 23:32:00,
2013-08-26 18:37:00,80.4,75.2,30.11,WNW,293,0.0,0.0,84,0.00,,,0.65,meteohub,2013-08-26 23:37:00,
2013-08-26 18:42:00,80.4,75.6,30.11,SW,225,0.0,0.0,85,0.00,,,0.65,meteohub,2013-08-26 23:42:00,
2013-08-26 18:47:00,80.4,75.6,30.11,SW,225,0.0,0.0,85,0.00,,,0.65,meteohub,2013-08-26 23:47:00,
2013-08-26 18:52:00,80.4,75.6,30.11,SW,225,0.0,0.0,85,0.00,,,0.65,meteohub,2013-08-26 23:52:00,
2013-08-26 18:57:00,80.4,75.6,30.11,SW,225,0.0,0.0,85,0.00,,,0.65,meteohub,2013-08-26 23:57:00,
2013-08-26 19:02:00,80.4,75.6,30.11,SW,225,0.0,0.0,85,0.00,,,0.65,meteohub,2013-08-27 00:02:00,
2013-08-26 19:07:00,80.4,75.6,30.11,SW,225,0.0,0.0,85,0.00,,,0.00,meteohub,2013-08-27 00:07:00,
2013-08-26 19:12:00,80.2,75.7,30.11,West,270,0.0,0.0,86,0.00,,,0.00,meteohub,2013-08-27 00:12:00,
2013-08-26 19:17:00,80.1,75.6,30.11,West,270,0.0,0.0,86,0.00,,,0.00,meteohub,2013-08-27 00:17:00,
2013-08-26 19:22:00,79.9,75.4,30.11,West,270,0.0,0.0,86,0.00,,,0.00,meteohub,2013-08-27 00:22:00,
2013-08-26 19:27:00,79.9,75.4,30.11,West,270,0.0,0.0,86,0.00,,,0.00,meteohub,2013-08-27 00:27:00,
2013-08-26 19:32:00,79.9,75.4,30.11,West,270,0.0,0.0,86,0.00,,,0.00,meteohub,2013-08-27 00:32:00,
2013-08-26 19:37:00,79.5,75.0,30.10,West,270,0.0,0.0,86,0.00,,,0.00,meteohub,2013-08-27 00:37:00,
2013-08-26 19:42:00,79.5,75.4,30.11,West,270,0.0,0.0,87,0.00,,,0.00,meteohub,2013-08-27 00:42:00,
2013-08-26 19:47:00,79.2,75.0,30.10,West,270,0.0,0.0,87,0.00,,,0.00,meteohub,2013-08-27 00:47:00,
2013-08-26 19:52:00,79.2,75.0,30.10,West,270,0.0,0.0,87,0.00,,,0.00,meteohub,2013-08-27 00:52:00,
2013-08-26 19:57:00,79.0,74.8,30.11,North,0,0.0,2.0,87,0.00,,,0.00,meteohub,2013-08-27 00:57:00,
2013-08-26 20:02:00,79.0,75.2,30.11,North,0,2.0,2.0,88,0.00,,,0.00,meteohub,2013-08-27 01:02:00,
2013-08-26 20:07:00,79.0,75.2,30.11,North,0,2.0,2.0,88,0.00,,,0.00,meteohub,2013-08-27 01:07:00,
2013-08-26 20:12:00,78.6,74.8,30.10,North,0,0.0,2.0,88,0.00,,,0.00,meteohub,2013-08-27 01:12:00,
2013-08-26 20:17:00,78.4,74.7,30.11,North,0,0.0,2.0,88,0.00,,,0.00,meteohub,2013-08-27 01:17:00,
2013-08-26 20:22:00,78.3,74.5,30.10,North,0,0.0,2.0,88,0.00,,,0.00,meteohub,2013-08-27 01:22:00,
2013-08-26 20:32:00,77.9,74.5,30.11,North,0,0.0,0.0,89,0.00,,,0.00,meteohub,2013-08-27 01:32:00,
2013-08-26 20:37:00,77.9,74.5,30.11,North,0,0.0,0.0,89,0.00,,,0.00,meteohub,2013-08-27 01:37:00,
2013-08-26 20:42:00,77.7,74.3,30.11,North,0,0.0,0.0,89,0.00,,,0.00,meteohub,2013-08-27 01:42:00,
2013-08-26 20:47:00,77.5,74.1,30.11,North,0,2.0,0.0,89,0.00,,,0.00,meteohub,2013-08-27 01:47:00,
2013-08-26 20:52:00,77.5,74.1,30.12,North,0,0.0,2.0,89,0.00,,,0.00,meteohub,2013-08-27 01:52:00,
2013-08-26 20:57:00,77.4,73.9,30.12,North,0,0.0,2.0,89,0.00,,,0.00,meteohub,2013-08-27 01:57:00,
2013-08-26 21:02:00,77.4,73.9,30.12,North,0,0.0,2.0,89,0.00,,,0.00,meteohub,2013-08-27 02:02:00,
2013-08-26 21:07:00,77.4,73.9,30.11,North,0,0.0,0.0,89,0.00,,,0.00,meteohub,2013-08-27 02:07:00,
2013-08-26 21:12:00,77.2,73.8,30.12,North,0,0.0,0.0,89,0.00,,,0.00,meteohub,2013-08-27 02:12:00,
2013-08-26 21:17:00,77.0,73.6,30.12,North,0,0.0,0.0,89,0.00,,,0.00,meteohub,2013-08-27 02:17:00,
2013-08-26 21:22:00,76.8,73.6,30.12,North,0,0.0,0.0,90,0.00,,,0.00,meteohub,2013-08-27 02:22:00,
2013-08-26 21:27:00,76.8,73.6,30.11,North,0,0.0,0.0,90,0.00,,,0.00,meteohub,2013-08-27 02:27:00,
2013-08-26 21:32:00,76.8,73.6,30.12,North,0,0.0,0.0,90,0.00,,,0.00,meteohub,2013-08-27 02:32:00,
2013-08-26 21:37:00,76.6,73.4,30.12,North,0,0.0,0.0,90,0.00,,,0.00,meteohub,2013-08-27 02:37:00,
2013-08-26 21:42:00,76.6,73.4,30.12,North,0,0.0,0.0,90,0.00,,,0.00,meteohub,2013-08-27 02:42:00,
2013-08-26 21:47:00,76.6,73.4,30.12,North,0,0.0,0.0,90,0.00,,,0.00,meteohub,2013-08-27 02:47:00,
2013-08-26 21:52:00,76.6,73.4,30.12,North,0,0.0,0.0,90,0.00,,,0.00,meteohub,2013-08-27 02:52:00,
2013-08-26 21:57:00,76.5,73.6,30.12,North,0,0.0,0.0,91,0.00,,,0.00,meteohub,2013-08-27 02:57:00,
2013-08-26 22:02:00,76.5,73.6,30.12,North,0,0.0,0.0,91,0.00,,,0.00,meteohub,2013-08-27 03:02:00,
2013-08-26 22:07:00,76.5,73.6,30.12,North,0,0.0,0.0,91,0.00,,,0.00,meteohub,2013-08-27 03:07:00,
2013-08-26 22:12:00,76.3,73.4,30.12,North,0,0.0,0.0,91,0.00,,,0.00,meteohub,2013-08-27 03:12:00,
2013-08-26 22:17:00,75.9,73.0,30.12,North,0,0.0,0.0,91,0.00,,,0.00,meteohub,2013-08-27 03:17:00,
2013-08-26 22:22:00,76.1,73.2,30.13,North,0,0.0,0.0,91,0.00,,,0.00,meteohub,2013-08-27 03:22:00,
2013-08-26 22:27:00,75.9,73.0,30.12,North,0,0.0,0.0,91,0.00,,,0.00,meteohub,2013-08-27 03:27:00,
2013-08-26 22:32:00,75.9,73.0,30.13,North,0,0.0,0.0,91,0.00,,,0.00,meteohub,2013-08-27 03:32:00,
2013-08-26 22:37:00,75.9,73.4,30.12,North,0,0.0,0.0,92,0.00,,,0.00,meteohub,2013-08-27 03:37:00,
2013-08-26 22:42:00,75.7,73.2,30.12,North,0,0.0,0.0,92,0.00,,,0.00,meteohub,2013-08-27 03:42:00,
2013-08-26 22:47:00,75.9,73.4,30.13,North,0,0.0,0.0,92,0.00,,,0.00,meteohub,2013-08-27 03:47:00,
2013-08-26 22:57:00,75.7,73.2,30.13,North,0,0.0,0.0,92,0.00,,,0.00,meteohub,2013-08-27 03:57:00,
2013-08-26 23:02:00,75.7,73.2,30.13,North,0,0.0,0.0,92,0.00,,,0.00,meteohub,2013-08-27 04:02:00,
2013-08-26 23:07:00,75.7,73.2,30.12,North,0,0.0,0.0,92,0.00,,,0.00,meteohub,2013-08-27 04:07:00,
2013-08-26 23:12:00,75.6,73.0,30.12,North,0,0.0,0.0,92,0.00,,,0.00,meteohub,2013-08-27 04:12:00,
2013-08-26 23:17:00,75.6,73.0,30.13,North,0,0.0,0.0,92,0.00,,,0.00,meteohub,2013-08-27 04:17:00,
2013-08-26 23:22:00,75.6,73.0,30.13,North,0,0.0,0.0,92,0.00,,,0.00,meteohub,2013-08-27 04:22:00,
2013-08-26 23:27:00,75.6,73.0,30.13,North,0,0.0,0.0,92,0.00,,,0.00,meteohub,2013-08-27 04:27:00,
2013-08-26 23:32:00,75.7,73.6,30.13,North,0,1.0,1.0,93,0.00,,,0.00,meteohub,2013-08-27 04:32:00,
2013-08-26 23:37:00,75.6,73.4,30.13,North,0,0.0,3.0,93,0.00,,,0.00,meteohub,2013-08-27 04:37:00,
2013-08-26 23:42:00,75.6,73.4,30.13,North,0,0.0,3.0,93,0.00,,,0.00,meteohub,2013-08-27 04:42:00,
2013-08-26 23:47:00,75.6,73.4,30.14,North,0,0.0,3.0,93,0.00,,,0.00,meteohub,2013-08-27 04:47:00,
2013-08-26 23:52:00,75.7,73.6,30.13,North,0,0.0,2.0,93,0.00,,,0.00,meteohub,2013-08-27 04:52:00,
2013-08-26 23:57:00,75.6,73.4,30.13,North,0,0.0,2.0,93,0.00,,,0.00,meteohub,2013-08-27 04:57:00,